Regional Weather Roundup
Issued by NWS

Home | Current Version | Previous Version | Graphics & Text | Print | Product List | Glossary On
Versions: 1 2 3 4 5 6 7 8 9 10 11 12 13 14 15 16 17 18 19 20 21 22 23 24 25 26 27 28 29 30 31 32 33 34 35 36 37 38 39 40 41 42 43 44 45 46 47 48 49 50
790
ASUS43 KLSX 241007
RWRMO

WEATHER SUMMARY FOR MISSOURI
NATIONAL WEATHER SERVICE SPRINGFIELD MO
500 AM CDT TUE APR 24 2018

NOTE: "FAIR" INDICATES FEW OR NO CLOUDS BELOW 12,000 FEET WITH NO
       SIGNIFICANT WEATHER AND/OR OBSTRUCTIONS TO VISIBILITY.
       CURRENT SKY AND/OR WEATHER CONDITIONS ARE NOT AVAILABLE FOR
       CHILLICOTHE AND FARMINGTON.

MOZ001>031-035>038-043-044-053-054-241100-
...NORTHERN AND WESTERN MISSOURI...

CITY           SKY/WX    TMP DP  RH WIND       PRES   REMARKS
KANSAS CTY INT CLEAR     48  30  49 NE7       30.08S
KANSAS C DTWN  CLEAR     47  35  63 CALM      30.08R
LEE`S SUMMIT   CLEAR     51  32  48 N6        30.08R
ST JOSEPH      CLEAR     38  32  79 CALM      30.10S
CHILLICOTHE      N/A     48  30  49 N3        30.09R
KIRKSVILLE     CLEAR     45  32  60 N6        30.07R

$$
MOZ066>068-077>081-088>096-101>105-241100-
...SOUTHWEST MISSOURI...

CITY           SKY/WX    TMP DP  RH WIND       PRES   REMARKS
SPRINGFIELD    CLEAR     43  39  86 NW3       30.02S
JOPLIN         CLEAR     47  42  83 NW3       30.06R
BRANSON        CLEAR     50  46  87 CALM      30.03R

$$
MOZ032>034-039>042-045>050-055>058-069>072-241100-
...CENTRAL MISSOURI...

CITY           SKY/WX    TMP DP  RH WIND       PRES   REMARKS
COLUMBIA       PTCLDY    51  48  89 NE6       30.03R
JEFFERSON CITY CLOUDY    51  47  86 NW3       30.03R
ROLLA          CLOUDY    54  51  90 N6        30.01R
SEDALIA        CLEAR     50  36  58 NW5       30.05R
WHITEMAN AFB   CLEAR     46  33  60 CALM      30.01R
WARRENSBURG    CLEAR     48  32  53 NW7       30.06S
OSAGE BEACH    CLEAR     46  45  96 CALM      30.03R

$$
MOZ051-052-059>065-241100-
...EAST CENTRAL MISSOURI...

CITY           SKY/WX    TMP DP  RH WIND       PRES   REMARKS
ST LOUIS INTL  CLOUDY    55  54  96 N9        29.98S
SPIRIT OF STL  CLOUDY    57  55  93 N6        29.99R
ST CHARLES     CLOUDY    56  53  90 N9        29.99R

$$
MOZ072>076-082>087-097>100-106>115-241100-
...SOUTH CENTRAL AND SOUTHEAST MISSOURI...

CITY           SKY/WX    TMP DP  RH WIND       PRES   REMARKS
CAPE GIRARDEAU CLOUDY    58  55  90 NW7       29.93S
FARMINGTON     FOG       54  32  43 NW6       29.97R VSB 3/4
POPLAR BLUFF   CLOUDY    56  56 100 NW3       29.94S FOG
WEST PLAINS    CLOUDY    55  52  89 N7        29.99S

$$




USA.gov is the U.S. government's official web portal to all federal, state and local government web resources and services.